This demonstration page uses our WeatherBlox Daily Observations layout. Learn more.

Left ArrowRight Arrow

39.08367, -84.50855

Hourly Observations for December 20, 2017

Temp ( °F °C ) Dew Point ( °F °C ) Humidity (%) Winds ( mph kmh ) Pressure ( in mb ) Visibility ( mi km ) Precip ( " mm )
12:30 am 00:30 Clear with Mist and Fog 38 3.3 38 3.3 100 100 N N/A 30.09 1019 3 4 N/A
12:53 am 00:53 Clear with Mist and Fog 37 2.8 37 2.8 100 100 N N/A 30.10 1019 2 3 N/A
1:04 am 01:04 Clear with Mist and Fog 37 2.8 37 2.8 100 100 N N/A 30.09 1019 1 1 N/A
1:15 am 01:15 Clear with Mist and Fog 37 2.8 37 2.8 100 100 N N/A 30.06 1018 2 3 N/A
1:22 am 01:22 Clear with Mist and Fog 37 2.8 37 2.8 100 100 N N/A 30.06 1018 3 4 N/A
1:53 am 01:53 Clear with Mist and Fog 36 2.2 36 2.2 100 100 N N/A 30.09 1019 2 3 N/A
2:02 am 02:02 Mostly Cloudy with Mist and Fog 37 2.8 37 2.8 100 100 N N/A 30.09 1019 1 2 N/A
2:07 am 02:07 Mostly Cloudy with Fog 37 2.8 36 2.2 96 96 N N/A 30.09 1019 1 1 N/A
2:33 am 02:33 Mostly Clear with Mist and Fog 36 2.2 36 2.2 100 100 N N/A 30.09 1019 1 2 N/A
2:50 am 02:50 Clear with Mist and Fog 36 2 36 2 100 100 N N/A 30.09 1019 3 4 N/A
2:53 am 02:53 Clear with Mist and Fog 35 1.7 35 1.7 100 100 N N/A 30.10 1019 3 4 N/A
3:11 am 03:11 Clear with Mist and Fog 36 2.2 36 2.2 100 100 N N/A 30.09 1019 3 5 N/A
3:53 am 03:53 Clear with Mist and Fog 36 2.2 35 1.7 97 97 N N/A 30.08 1019 4 6 N/A
4:22 am 04:22 Clear with Mist and Fog 35 1.7 35 1.7 100 100 SSW 5 7 30.09 1019 2 3 N/A
4:36 am 04:36 Clear with Mist and Fog 36 2.2 35 1.7 97 97 N N/A 30.09 1019 3 5 N/A
4:50 am 04:50 Clear with Mist and Fog 34 1 34 1 100 100 N N/A 30.06 1018 2 3 N/A
4:53 am 04:53 Clear with Mist and Fog 35 1.7 34 1.1 96 96 N N/A 30.08 1019 2 3 N/A
5:00 am 05:00 Clear with Mist and Fog 35 1.7 35 1.7 100 100 N N/A 30.06 1018 2 3 N/A
5:10 am 05:10 Clear with Mist and Fog 34 1.1 34 1.1 100 100 N N/A 30.09 1019 2 3 N/A
5:30 am 05:30 Mostly Cloudy with Mist and Fog 33 0.6 33 0.6 100 100 S 3 6 30.09 1019 1 2 N/A
5:37 am 05:37 Mostly Cloudy with Fog 34 1.1 34 1.1 100 100 SW 3 6 30.09 1019 1 1 N/A
5:44 am 05:44 Mostly Cloudy with Fog 34 1.1 34 1.1 100 100 SW 3 6 30.09 1019 0 0 N/A
5:50 am 05:50 Mostly Cloudy with Mist and Fog 36 2 36 2 100 100 N N/A 30.09 1019 1 2 N/A
5:53 am 05:53 Mostly Clear with Mist and Fog 35 1.7 35 1.7 100 100 N N/A 30.11 1020 2 3 N/A
6:12 am 06:12 Mostly Cloudy with Mist and Fog 32 undefined 32 undefined 100 100 N N/A 30.12 1020 1 2 N/A
6:15 am 06:15 Mostly Cloudy with Mist and Fog 33 0.6 33 0.6 100 100 N N/A 30.09 1019 1 1 N/A
6:25 am 06:25 Mostly Cloudy with Fog 34 1.1 34 1.1 100 100 N N/A 30.12 1020 0 0 N/A
6:53 am 06:53 Mostly Cloudy with Fog 33 0.6 33 0.6 100 100 N N/A 30.12 1020 1 1 N/A
7:09 am 07:09 Mostly Cloudy with Fog 34 1.1 34 1.1 100 100 N N/A 30.12 1020 1 1 N/A
7:33 am 07:33 Cloudy with Mist and Fog 33 0.6 33 0.6 100 100 N N/A 30.15 1021 2 3 N/A
7:44 am 07:44 Cloudy with Mist and Fog 33 0.6 33 0.6 100 100 N N/A 30.15 1021 3 5 N/A
7:53 am 07:53 Cloudy with Patchy Fog 33 0.6 33 0.6 100 100 N N/A 30.11 1020 2 2 N/A
8:17 am 08:17 Cloudy with Patchy Fog 35 1.7 35 1.7 100 100 N 5 7 30.12 1020 3 5 N/A
8:53 am 08:53 Mostly Cloudy with Mist and Fog 36 2.2 36 2.2 100 100 N N/A 30.12 1020 5 8 N/A
9:53 am 09:53 Sunny 41 5 35 1.7 79 79 NE 6 9 30.12 1020 9 14 N/A
10:53 am 10:53 Sunny 42 5.6 27 -2.8 55 55 NE 7 11 30.11 1020 10 16 N/A
11:53 am 11:53 Sunny 43 6.1 27 -2.8 53 53 NE 9 15 30.09 1019 10 16 N/A
12:53 pm 12:53 Sunny 46 7.8 25 -3.9 44 44 ENE 6 9 30.07 1018 10 16 N/A
1:53 pm 13:53 Sunny 48 8.9 24 -4.4 39 39 VRB 5 7 30.04 1017 10 16 N/A
2:53 pm 14:53 Sunny 49 9.4 22 -5.6 35 35 N 7 11 30.03 1017 10 16 N/A
3:53 pm 15:53 Sunny 49 9.4 21 -6.1 33 33 NE 9 15 30.04 1017 10 16 N/A
4:53 pm 16:53 Sunny 45 7.2 22 -5.6 40 40 NE 7 11 30.05 1018 10 16 N/A
5:53 pm 17:53 Clear 40 4.4 21 -6.1 47 47 NE 7 11 30.06 1018 10 16 N/A
6:53 pm 18:53 Clear 37 2.8 22 -5.6 54 54 NE 6 9 30.07 1018 10 16 N/A
7:53 pm 19:53 Clear 34 1.1 23 -5 64 64 N N/A 30.08 1019 10 16 N/A
8:53 pm 20:53 Clear 32 undefined 25 -3.9 75 75 N N/A 30.08 1019 10 16 N/A
9:53 pm 21:53 Clear 30 -1.1 25 -3.9 82 82 N N/A 30.09 1019 10 16 N/A
10:53 pm 22:53 Clear 28 -2.2 24 -4.4 85 85 N N/A 30.11 1020 10 16 N/A
11:53 pm 23:53 Clear 28 -2.2 24 -4.4 85 85 NE 6 9 30.10 1019 10 16 N/A

Powered by AerisWeather